Location: Koussan�
(15.2012°N, 12.5548°W)
Time: 01:37:10
(UTC+00:00)

Okean-O - Visible Passes

Search period start: 27 February 2021 00:00
Search period end: 09 March 2021 00:00
Orbit: 638 x 641 km, 98.2° (Epoch: 26 February)

Date Brightness Start Highest point End Pass type
(mag) Time Alt. Az. Time Alt. Az. Time Alt. Az.
27 Feb 2.5 19:55:54 10° SSE 20:00:20 86° ENE 20:04:46 10° N visible
28 Feb 3.8 20:19:25 10° S 20:23:37 44° W 20:27:50 10° NNW visible
01 Mar 5.1 20:43:33 10° SSW 20:46:56 22° W 20:50:19 10° NW visible
02 Mar 3.2 19:29:53 10° SE 19:33:55 36° ENE 19:37:57 10° N visible
02 Mar 6.0 21:09:40 10° WSW 21:10:17 10° W 21:10:54 10° W visible
03 Mar 2.5 19:52:45 10° SSE 19:57:10 77° ENE 20:01:34 10° N visible
04 Mar 3.5 20:16:10 10° S 20:20:26 50° W 20:24:43 10° NNW visible
05 Mar 4.9 20:40:11 10° SSW 20:43:45 24° W 20:47:20 10° NW visible
06 Mar 3.3 19:26:50 10° SE 19:30:46 32° ENE 19:34:41 10° NNE visible
06 Mar 5.8 21:05:32 10° WSW 21:07:06 12° W 21:08:40 10° WNW visible
07 Mar 2.5 19:49:36 10° SSE 19:53:59 68° ENE 19:58:22 10° N visible
08 Mar 3.3 20:12:56 10° S 20:17:15 56° WSW 20:21:36 10° NNW visible
